When you browse on this site, cookies collect data to enhance your experience and personalize the content and advertising you see.
Visit our Privacy Policy to learn more. By continuing to use the site, you agree to this use of cookies and data.
  • In Czech Republic
  • List of Countries
  • For 7 days
  • Water Temperature
  • Satellite Maps
  • Weather Map
  • Weather Widgets
  • user-avatar
    Login

    Hourly Weather Canillo

    Today, 13 December, Thursday

    Time Temperature Precipitation Wind Pressure Humidity
    00:00 -1°C° 0 mm 1 mps 613 mmHg 87%
    01:00 -1°C° 0 mm 1 mps 613 mmHg 87%
    02:00 -1°C° 0 mm 1 mps 612 mmHg 87%
    03:00 -1°C° 0 mm 1 mps 612 mmHg 87%
    04:00 -1°C° 0 mm 1 mps 611 mmHg 86%
    05:00 0°C° 0 mm 1 mps 611 mmHg 85%
    06:00 0°C° 0 mm 1 mps 611 mmHg 83%
    07:00 0°C° 0.2 mm 1 mps 610 mmHg 82%
    08:00 +1°C° 0.2 mm 1 mps 610 mmHg 81%
    09:00 +1°C° 0.2 mm 1 mps 610 mmHg 79%
    10:00 +1°C° 1.2 mm 1 mps 610 mmHg 82%
    11:00 +1°C° 1.2 mm 1 mps 610 mmHg 86%
    12:00 +1°C° 1.2 mm 1 mps 609 mmHg 89%
    13:00 +1°C° 0.9 mm 1 mps 609 mmHg 90%
    14:00 +1°C° 0.9 mm 1 mps 609 mmHg 91%
    15:00 +1°C° 0.9 mm 1 mps 609 mmHg 93%
    16:00 +1°C° 0.6 mm 1 mps 609 mmHg 92%
    17:00 -1°C° 0.6 mm 2 mps 609 mmHg 92%
    18:00 -2°C° 0.6 mm 2 mps 609 mmHg 92%
    19:00 -2°C° 0.4 mm 2 mps 609 mmHg 92%
    20:00 -2°C° 0.4 mm 2 mps 609 mmHg 91%
    21:00 -2°C° 0.4 mm 3 mps 610 mmHg 91%
    22:00 -2°C° 0.5 mm 3 mps 610 mmHg 91%
    23:00 -2°C° 0.5 mm 3 mps 610 mmHg 91%

    Tomorrow, 14 December, Friday

    Time Temperature Precipitation Wind Pressure Humidity
    00:00 -2°C° 0.5 mm 3 mps 611 mmHg 91%
    01:00 -2°C° 0.7 mm 2 mps 611 mmHg 91%
    02:00 -2°C° 0.7 mm 2 mps 612 mmHg 91%
    03:00 -2°C° 0.7 mm 2 mps 612 mmHg 91%
    04:00 -2°C° 0.5 mm 2 mps 612 mmHg 91%
    05:00 -2°C° 0.5 mm 2 mps 613 mmHg 91%
    06:00 -2°C° 0.5 mm 2 mps 613 mmHg 91%
    07:00 -2°C° 0.3 mm 2 mps 614 mmHg 90%
    08:00 -2°C° 0.3 mm 3 mps 614 mmHg 89%
    09:00 -1°C° 0.3 mm 3 mps 615 mmHg 89%
    10:00 -1°C° 0 mm 3 mps 616 mmHg 87%
    11:00 0°C° 0 mm 3 mps 616 mmHg 85%
    12:00 0°C° 0 mm 3 mps 617 mmHg 83%
    13:00 0°C° 0 mm 3 mps 617 mmHg 83%
    14:00 0°C° 0 mm 3 mps 617 mmHg 82%
    15:00 0°C° 0 mm 3 mps 617 mmHg 82%
    16:00 -1°C° 0 mm 3 mps 617 mmHg 84%
    17:00 -2°C° 0 mm 3 mps 617 mmHg 86%
    18:00 -2°C° 0 mm 3 mps 617 mmHg 89%
    19:00 -2°C° 0 mm 3 mps 618 mmHg 88%
    20:00 -2°C° 0 mm 3 mps 618 mmHg 88%
    21:00 -4°C° 0 mm 3 mps 618 mmHg 88%
    22:00 -4°C° 0 mm 3 mps 618 mmHg 88%
    23:00 -3°C° 0 mm 2 mps 618 mmHg 88%

    Day after tomorrow, 15 December, Saturday

    Time Temperature Precipitation Wind Pressure Humidity
    00:00 -4°C° 0 mm 2 mps 618 mmHg 88%
    01:00 -4°C° 0 mm 2 mps 618 mmHg 86%
    02:00 -5°C° 0 mm 2 mps 617 mmHg 85%
    03:00 -5°C° 0 mm 2 mps 617 mmHg 83%
    04:00 -5°C° 0 mm 2 mps 617 mmHg 80%
    05:00 -5°C° 0 mm 2 mps 617 mmHg 77%
    06:00 -5°C° 0 mm 2 mps 617 mmHg 74%
    07:00 -3°C° 0 mm 2 mps 618 mmHg 71%
    08:00 0°C° 0 mm 1 mps 619 mmHg 69%
    09:00 +2°C° 0 mm 1 mps 619 mmHg 67%
    10:00 +3°C° 0 mm 1 mps 620 mmHg 68%
    11:00 +4°C° 0 mm 1 mps 620 mmHg 69%
    12:00 +6°C° 0 mm 1 mps 621 mmHg 70%
    13:00 +6°C° 0 mm 1 mps 620 mmHg 74%
    14:00 +6°C° 0 mm 1 mps 620 mmHg 77%
    15:00 +5°C° 0 mm 1 mps 619 mmHg 81%
    16:00 +5°C° 0 mm 1 mps 619 mmHg 83%
    17:00 +4°C° 0 mm 1 mps 619 mmHg 85%
    18:00 +3°C° 0 mm 1 mps 618 mmHg 87%
    19:00 +3°C° 0 mm 1 mps 618 mmHg 87%
    20:00 +3°C° 0 mm 1 mps 618 mmHg 87%
    21:00 +3°C° 0 mm 1 mps 618 mmHg 86%
    22:00 +3°C° 0 mm 1 mps 618 mmHg 86%
    23:00 +3°C° 0 mm 1 mps 618 mmHg 87%

    16 December, Sunday

    Time Temperature Precipitation Wind Pressure Humidity
    00:00 +3°C° 0 mm 1 mps 618 mmHg 87%
    01:00 +2°C° 0 mm 1 mps 618 mmHg 88%
    02:00 +2°C° 0 mm 1 mps 617 mmHg 89%
    03:00 +2°C° 0 mm 1 mps 617 mmHg 90%
    04:00 +2°C° 0.2 mm 1 mps 617 mmHg 91%
    05:00 +2°C° 0.2 mm 1 mps 617 mmHg 91%
    06:00 +1°C° 0.2 mm 0 mps 617 mmHg 92%
    07:00 +2°C° 0.6 mm 1 mps 617 mmHg 93%
    08:00 +2°C° 0.6 mm 1 mps 617 mmHg 94%
    09:00 +2°C° 0.6 mm 1 mps 618 mmHg 94%
    10:00 +3°C° 0.4 mm 1 mps 618 mmHg 94%
    11:00 +2°C° 0.4 mm 2 mps 618 mmHg 93%
    12:00 +2°C° 0.4 mm 2 mps 618 mmHg 92%
    13:00 +2°C° 0.4 mm 2 mps 617 mmHg 92%
    14:00 +2°C° 0.4 mm 2 mps 617 mmHg 92%
    15:00 +1°C° 0.4 mm 2 mps 617 mmHg 92%
    16:00 +1°C° 0.2 mm 2 mps 618 mmHg 92%
    17:00 -1°C° 0.2 mm 2 mps 618 mmHg 92%
    18:00 -2°C° 0.2 mm 2 mps 618 mmHg 92%
    19:00 -2°C° 0 mm 2 mps 618 mmHg 91%
    20:00 -3°C° 0 mm 2 mps 618 mmHg 89%
    21:00 -3°C° 0 mm 2 mps 618 mmHg 87%
    22:00 -3°C° 0 mm 2 mps 618 mmHg 86%
    23:00 -3°C° 0 mm 2 mps 619 mmHg 85%

    17 December, Monday

    Time Temperature Precipitation Wind Pressure Humidity
    00:00 -3°C° 0 mm 2 mps 619 mmHg 84%
    01:00 -3°C° 0 mm 2 mps 619 mmHg 85%
    02:00 -4°C° 0 mm 2 mps 619 mmHg 85%
    03:00 -4°C° 0 mm 2 mps 619 mmHg 86%
    04:00 -4°C° 0 mm 2 mps 619 mmHg 86%
    05:00 -2°C° 0 mm 1 mps 619 mmHg 86%
    06:00 -2°C° 0 mm 1 mps 619 mmHg 86%
    07:00 -2°C° 0 mm 1 mps 619 mmHg 84%
    08:00 -1°C° 0 mm 1 mps 620 mmHg 83%
    09:00 -1°C° 0 mm 1 mps 621 mmHg 81%
    10:00 0°C° 0 mm 1 mps 621 mmHg 77%
    11:00 +1°C° 0 mm 1 mps 621 mmHg 74%
    12:00 +2°C° 0 mm 1 mps 622 mmHg 70%
    13:00 +2°C° 0 mm 1 mps 621 mmHg 71%
    14:00 +2°C° 0 mm 1 mps 621 mmHg 72%
    15:00 +2°C° 0 mm 1 mps 621 mmHg 73%
    16:00 0°C° 0 mm 1 mps 621 mmHg 76%
    17:00 -1°C° 0 mm 1 mps 620 mmHg 80%
    18:00 -5°C° 0 mm 2 mps 620 mmHg 84%
    19:00 -3°C° 0 mm 1 mps 620 mmHg 79%
    20:00 -3°C° 0 mm 1 mps 620 mmHg 75%
    21:00 -4°C° 0 mm 1 mps 620 mmHg 70%
    22:00 -4°C° 0 mm 1 mps 620 mmHg 70%
    23:00 -4°C° 0 mm 1 mps 620 mmHg 70%

    18 December, Tuesday

    Time Temperature Precipitation Wind Pressure Humidity
    00:00 -4°C° 0 mm 1 mps 620 mmHg 70%
    01:00 -4°C° 0 mm 1 mps 619 mmHg 71%
    02:00 -3°C° 0 mm 1 mps 619 mmHg 72%
    03:00 -3°C° 0 mm 1 mps 619 mmHg 73%
    04:00 -3°C° 0 mm 1 mps 618 mmHg 72%
    05:00 -5°C° 0 mm 2 mps 618 mmHg 71%
    06:00 -5°C° 0 mm 2 mps 618 mmHg 70%
    07:00 -4°C° 0 mm 2 mps 618 mmHg 66%
    08:00 -3°C° 0 mm 2 mps 618 mmHg 63%
    09:00 -2°C° 0 mm 3 mps 618 mmHg 60%
    10:00 -1°C° 0 mm 3 mps 618 mmHg 59%
    11:00 0°C° 0 mm 3 mps 618 mmHg 58%
    12:00 0°C° 0 mm 4 mps 618 mmHg 58%
    13:00 +1°C° 0 mm 3 mps 617 mmHg 62%
    14:00 0°C° 0 mm 3 mps 617 mmHg 66%
    15:00 0°C° 0 mm 3 mps 616 mmHg 70%
    16:00 -1°C° 0.2 mm 3 mps 616 mmHg 74%
    17:00 -2°C° 0.2 mm 2 mps 615 mmHg 77%
    18:00 -2°C° 0.2 mm 2 mps 615 mmHg 81%
    19:00 -2°C° 0.3 mm 2 mps 615 mmHg 83%
    20:00 -2°C° 0.3 mm 2 mps 615 mmHg 85%
    21:00 -2°C° 0.3 mm 2 mps 615 mmHg 87%
    22:00 -3°C° 0.1 mm 2 mps 615 mmHg 87%
    23:00 -1°C° 0.1 mm 1 mps 614 mmHg 88%
    Show more